Total_Precipitation_Accumulation
0.00 0.01 0.01 0.02 0.02 0.06 0.07 0.09 0.19 0.25 0.16 0.19 0.34 0.53 0.74 0.91 1.06 1.13 1.29 1.28 1.47 1.73 1.88 2.26 2.61 3.07 3.51 4.03 4.76 5.38 5.80 5.78 5.60 5.26 4.89 4.61 4.10 3.77 3.50 3.22 2.98 2.77 2.52 2.44
0.01 0.02 0.02 0.03 0.03 0.04 0.08 0.12 0.24 0.26 0.17 0.17 0.34 0.58 0.85 0.94 0.91 0.94 1.16 1.27 1.35 1.54 1.84 2.18 2.69 2.99 3.34 3.85 4.40 4.82 4.82 4.49 4.37 4.39 4.29 4.04 4.03 3.85 3.70 3.43 3.20 2.81 2.63 2.51
0.03 0.04 0.02 0.03 0.04 0.05 0.07 0.11 0.17 0.22 0.24 0.26 0.36 0.74 1.02 1.03 0.90 0.85 0.88 1.01 1.13 1.28 1.49 1.82 2.37 2.68 2.87 3.33 3.67 3.70 3.59 3.42 3.47 3.53 3.51 3.60 3.80 3.79 3.72 3.55 3.27 2.98 2.82 2.71
0.02 0.03 0.03 0.04 0.06 0.06 0.10 0.08 0.09 0.12 0.21 0.44 0.49 0.91 1.23 1.30 1.21 0.98 0.88 1.00 1.08 1.19 1.25 1.54 1.86 2.08 2.34 2.56 2.70 2.69 2.78 2.81 2.82 2.87 2.90 2.82 2.84 3.01 3.20 3.40 3.44 3.37 3.12 2.87
0.03 0.04 0.05 0.05 0.06 0.07 0.07 0.06 0.08 0.12 0.18 0.32 0.44 0.70 1.17 1.44 1.58 1.24 0.99 0.90 0.87 1.03 1.27 1.46 1.56 1.71 1.80 1.82 1.94 2.01 2.31 2.63 2.73 2.80 2.91 2.81 2.53 2.51 2.54 2.67 2.81 2.82 2.81 2.64
0.04 0.05 0.05 0.05 0.05 0.07 0.08 0.11 0.19 0.28 0.41 0.64 0.61 0.66 1.06 1.32 1.47 1.17 0.97 0.89 0.78 0.79 0.98 1.19 1.44 1.52 1.46 1.43 1.60 1.82 2.12 2.50 2.72 2.79 2.74 2.70 2.59 2.55 2.46 2.48 2.52 2.39 2.37 2.30
0.15 0.13 0.10 0.06 0.07 0.08 0.09 0.16 0.53 0.91 1.23 1.23 0.71 0.70 0.94 0.99 0.93 0.94 0.81 0.76 0.80 0.74 0.73 0.74 0.93 1.17 1.13 1.11 1.27 1.54 1.72 2.02 2.24 2.34 2.34 2.26 2.35 2.46 2.34 2.22 2.16 2.08 1.94 1.85
0.19 0.23 0.14 0.09 0.07 0.07 0.08 0.13 0.39 0.67 0.85 0.96 0.77 1.10 1.25 0.92 0.77 0.68 0.57 0.54 0.61 0.58 0.53 0.51 0.58 0.73 0.94 0.96 1.02 1.13 1.37 1.58 1.77 1.85 1.97 2.08 2.23 2.34 2.28 2.43 2.24 2.09 1.80 1.65
0.08 0.11 0.10 0.09 0.09 0.09 0.09 0.08 0.14 0.24 0.38 0.65 0.91 1.14 1.13 0.94 0.89 0.70 0.52 0.45 0.45 0.43 0.42 0.43 0.50 0.69 0.70 0.71 0.77 0.87 1.10 1.29 1.45 1.59 1.75 1.83 1.80 1.82 1.95 2.13 2.16 2.01 1.91 1.72
0.05 0.05 0.07 0.09 0.10 0.11 0.10 0.09 0.11 0.19 0.33 0.51 0.82 1.18 1.25 1.15 1.02 0.85 0.74 0.54 0.43 0.41 0.40 0.41 0.44 0.52 0.52 0.52 0.65 0.88 1.06 1.09 1.31 1.61 1.78 1.68 1.66 1.57 1.72 1.81 1.85 1.91 1.86 1.83
0.04 0.04 0.07 0.09 0.12 0.14 0.14 0.12 0.11 0.15 0.20 0.34 0.71 0.93 0.83 0.89 0.85 0.82 0.70 0.60 0.51 0.45 0.45 0.45 0.45 0.45 0.56 0.50 0.60 0.77 0.89 1.02 1.31 1.61 1.80 1.79 1.64 1.62 1.75 1.69 1.67 1.80 1.83 1.81
0.05 0.05 0.07 0.11 0.16 0.16 0.15 0.14 0.15 0.21 0.21 0.24 0.39 0.62 0.50 0.60 0.72 0.73 0.54 0.48 0.45 0.36 0.38 0.36 0.33 0.39 0.40 0.40 0.52 0.81 1.12 1.47 1.63 1.87 2.10 2.10 1.81 1.64 1.58 1.47 1.49 1.67 1.86 1.88
0.05 0.06 0.12 0.29 0.32 0.24 0.17 0.13 0.14 0.16 0.16 0.18 0.39 0.60 0.47 0.52 0.62 0.62 0.52 0.44 0.44 0.45 0.40 0.39 0.36 0.44 0.42 0.40 0.44 0.57 0.72 1.04 1.35 1.67 1.93 1.87 1.64 1.48 1.45 1.46 1.52 1.66 1.79 1.80
0.06 0.05 0.09 0.25 0.32 0.31 0.26 0.20 0.16 0.13 0.15 0.20 0.27 0.51 0.53 0.58 0.51 0.52 0.44 0.41 0.49 0.58 0.50 0.46 0.44 0.42 0.42 0.43 0.42 0.51 0.57 0.64 0.84 1.23 1.50 1.51 1.38 1.33 1.36 1.42 1.44 1.44 1.48 1.55
0.07 0.06 0.05 0.06 0.15 0.21 0.23 0.21 0.18 0.13 0.12 0.24 0.27 0.36 0.46 0.61 0.56 0.53 0.50 0.42 0.43 0.51 0.50 0.48 0.47 0.52 0.54 0.59 0.58 0.58 0.59 0.61 0.76 1.14 1.34 1.31 1.27 1.28 1.25 1.26 1.34 1.41 1.47 1.52
0.10 0.10 0.09 0.10 0.14 0.15 0.16 0.19 0.17 0.12 0.11 0.10 0.15 0.29 0.34 0.53 0.62 0.62 0.60 0.54 0.51 0.52 0.48 0.45 0.40 0.50 0.59 0.64 0.65 0.63 0.63 0.66 0.77 1.03 1.23 1.23 1.21 1.19 1.14 1.19 1.29 1.45 1.55 1.71
0.16 0.15 0.15 0.15 0.19 0.17 0.24 0.20 0.17 0.15 0.14 0.14 0.23 0.36 0.35 0.40 0.53 0.63 0.64 0.58 0.53 0.55 0.46 0.42 0.47 0.59 0.79 0.71 0.71 0.76 0.69 0.68 0.81 1.01 1.18 1.26 1.23 1.26 1.24 1.22 1.38 1.58 1.74 1.89
0.29 0.27 0.25 0.21 0.25 0.36 0.28 0.21 0.22 0.24 0.28 0.28 0.31 0.35 0.38 0.49 0.56 0.67 0.84 0.70 0.54 0.57 0.58 0.62 0.59 0.68 0.75 0.72 0.75 0.77 0.76 0.75 0.85 1.05 1.26 1.35 1.30 1.35 1.44 1.44 1.53 1.75 1.96 2.10
0.34 0.39 0.36 0.31 0.34 0.41 0.37 0.29 0.34 0.37 0.42 0.44 0.48 0.42 0.46 0.52 0.62 0.72 0.70 0.68 0.72 0.70 0.69 0.74 0.79 0.82 0.89 0.91 0.86 0.83 0.89 0.93 1.01 1.10 1.27 1.38 1.44 1.52 1.55 1.59 1.77 1.99 2.17 2.21
0.36 0.45 0.49 0.44 0.52 0.58 0.57 0.42 0.36 0.43 0.73 0.59 0.61 0.60 0.54 0.57 0.81 0.88 0.74 0.68 0.68 0.78 0.85 0.82 0.87 0.90 0.94 0.97 1.01 1.01 1.07 1.20 1.34 1.43 1.50 1.68 1.85 2.01 2.09 2.14 2.21 2.26 2.33 2.25
0.64 0.61 0.60 0.65 0.76 0.70 0.55 0.48 0.42 0.80 1.13 0.84 0.81 0.79 0.70 0.81 0.91 0.89 0.76 0.71 0.65 0.68 0.80 0.85 0.86 0.94 1.02 1.03 1.13 1.28 1.36 1.46 1.59 1.72 1.79 1.99 2.28 2.45 2.45 2.47 2.42 2.34 2.35 2.36
0.86 0.81 0.82 0.87 1.10 1.15 0.63 0.59 0.89 1.13 0.94 0.97 1.00 0.98 0.91 0.88 0.94 0.94 0.90 0.74 0.66 0.67 0.74 0.84 0.89 0.93 1.08 1.30 1.47 1.70 1.78 1.75 1.83 1.97 2.12 2.31 2.54 2.49 2.43 2.60 2.53 2.49 2.56 2.54
0.90 0.97 1.04 1.13 1.33 1.13 0.77 0.89 1.07 1.05 1.00 1.02 1.02 0.97 0.87 0.82 0.95 0.91 0.82 0.80 0.67 0.65 0.72 0.81 0.89 0.99 1.13 1.37 1.71 1.94 2.00 2.10 2.12 2.18 2.30 2.36 2.44 2.61 2.77 2.83 2.72 2.63 2.62 2.55
1.06 0.97 1.14 1.35 1.43 1.21 1.06 1.04 1.00 1.03 1.03 0.97 0.90 0.86 0.86 0.81 0.82 0.81 0.75 0.73 0.69 0.69 0.77 0.81 0.89 1.06 1.30 1.50 1.79 1.93 1.96 1.99 2.02 2.05 2.05 2.13 2.26 2.40 2.49 2.73 2.79 2.70 2.57 2.50
1.19 1.12 1.32 1.68 1.76 1.64 1.52 1.30 1.13 1.09 1.03 1.03 0.99 0.92 0.89 0.83 0.77 0.73 0.72 0.71 0.70 0.70 0.79 0.87 0.95 1.07 1.21 1.41 1.60 1.68 1.81 1.87 1.97 1.98 1.93 1.92 1.95 2.07 2.17 2.27 2.38 2.35 2.34 2.16
1.26 1.34 1.56 1.91 1.68 1.65 1.78 1.55 1.33 1.24 1.20 1.24 1.27 1.23 1.07 0.94 0.87 0.82 0.79 0.72 0.68 0.67 0.76 0.86 0.98 1.11 1.21 1.37 1.58 1.65 1.76 1.83 1.88 1.84 1.77 1.79 1.81 1.89 1.94 1.93 1.88 1.72 1.65 1.50